This demonstration page uses our WeatherBlox Daily Observations layout. Learn more.

Left ArrowRight Arrow

Hourly Observations for November 8, 2022

Temp ( °F °C ) Dew Point ( °F °C ) Humidity (%) Winds ( mph kmh ) Pressure ( in mb ) Visibility ( mi km ) Precip ( " mm )
12:53 am 00:53 Mostly Clear 66 18.9 60 15.6 81 81 SE 13 20 29.99 1016 10 16 0.00 0.00
1:39 am 01:39 Mostly Cloudy 66 18.9 61 16.1 84 84 SE 12 19 30.00 1016 10 16 0.00 0.00
1:53 am 01:53 Cloudy 66 18.9 61 16.1 84 84 SE 12 19 29.99 1016 10 16 0.00 0.00
2:53 am 02:53 Mostly Cloudy 65 18.3 62 16.7 90 90 SE 8 13 29.98 1015 9 14 0.00 0.00
3:31 am 03:31 Partly Cloudy 65 18.3 62 16.7 90 90 SE 9 15 30.00 1016 9 14 0.00 0.00
3:53 am 03:53 Partly Cloudy 65 18.3 63 17.2 93 93 SE 8 13 29.98 1015 9 14 0.00 0.00
4:34 am 04:34 Mostly Cloudy 66 18.9 63 17.2 90 90 SE 10 17 29.99 1016 9 14 0.00 0.00
4:53 am 04:53 Partly Cloudy 66 18.9 63 17.2 90 90 SE 9 15 29.98 1015 9 14 0.00 0.00
5:00 am 05:00 Mostly Cloudy 66 18.9 63 17.2 90 90 SE 9 15 29.99 1016 9 14 0.00 0.00
5:33 am 05:33 Partly Cloudy 65 18.3 63 17.2 93 93 SE 9 15 30.01 1016 10 16 0.00 0.00
5:53 am 05:53 Clear 65 18.3 62 16.7 90 90 SE 10 17 29.99 1016 10 16 0.00 0.00
6:53 am 06:53 Clear 65 18.3 62 16.7 90 90 SE 13 20 30.01 1016 10 16 0.00 0.00
7:53 am 07:53 Sunny 65 18.3 62 16.7 90 90 SE 13 20 30.04 1017 10 16 0.00 0.00
8:53 am 08:53 Sunny 68 20 62 16.7 81 81 SSE 15 24 30.06 1018 10 16 0.00 0.00
9:53 am 09:53 Sunny 70 21.1 62 16.7 76 76 SSE 18 30 30.07 1018 10 16 0.00 0.00
10:45 am 10:45 Mostly Cloudy 73 22.8 62 16.7 68 68 SSE 17 28 30.03 1017 10 16 0.00 0.00
10:53 am 10:53 Mostly Cloudy 72 22.2 61 16.1 68 68 SSE 21 33 30.06 1018 10 16 0.00 0.00
11:30 am 11:30 Partly Cloudy 74 23.3 61 16.1 64 64 SE 21 33 30.02 1016 10 16 0.00 0.00
11:53 am 11:53 Partly Cloudy 75 23.9 60 15.6 60 60 SE 24 39 30.03 1017 10 16 0.00 0.00
12:31 pm 12:31 Mostly Cloudy 76 24.4 60 15.6 58 58 SE 23 37 29.98 1015 10 16 0.00 0.00
12:53 pm 12:53 Mostly Cloudy 76 24.4 60 15.6 58 58 SE 18 30 30.01 1016 10 16 0.00 0.00
1:15 pm 13:15 Partly Cloudy 77 25 60 15.6 56 56 SSE 22 35 29.95 1014 10 16 0.00 0.00
1:53 pm 13:53 Partly Cloudy 78 25.6 60 15.6 54 54 SE 17 28 29.98 1015 10 16 0.00 0.00
2:53 pm 14:53 Sunny 76 24.4 59 15 56 56 SE 22 35 29.94 1014 10 16 0.00 0.00
3:53 pm 15:53 Sunny 78 25.6 59 15 52 52 SE 23 37 29.93 1014 10 16 0.00 0.00
4:53 pm 16:53 Sunny 76 24.4 59 15 56 56 SE 21 33 29.94 1014 10 16 0.00 0.00
5:53 pm 17:53 Sunny 73 22.8 59 15 61 61 SE 21 33 29.95 1014 10 16 0.00 0.00
6:53 pm 18:53 Clear 71 21.7 59 15 66 66 SE 20 31 29.96 1015 10 16 0.00 0.00
7:53 pm 19:53 Clear 69 20.6 59 15 70 70 SE 17 28 29.98 1015 10 16 0.00 0.00
8:53 pm 20:53 Clear 68 20 59 15 73 73 SE 21 33 29.97 1015 10 16 0.00 0.00
9:53 pm 21:53 Clear 67 19.4 59 15 76 76 SE 15 24 29.98 1015 10 16 0.00 0.00
10:53 pm 22:53 Clear 66 18.9 59 15 78 78 SE 15 24 29.98 1015 10 16 0.00 0.00
11:53 pm 23:53 Clear 64 17.8 58 14.4 80 80 SE 10 17 29.97 1015 10 16 0.00 0.00

Powered by AerisWeather